Temperature
17 17 17 17 17 17 16 16 16 17 17 16 16 16 15 15 15 15 15 15 15 15 15 15 15 15 15 15 15 15 14 14 14 14 14 13 13 13
17 17 17 17 17 16 16 16 16 16 16 16 16 15 15 15 15 15 15 15 15 15 15 15 15 14 14 14 14 14 14 14 14 14 13 13 13 13
17 16 17 17 16 16 16 16 16 16 16 16 15 15 15 15 14 14 14 14 14 14 14 14 14 14 14 14 14 14 14 13 13 13 13 13 13 13
17 16 16 16 16 16 16 16 16 16 15 15 15 15 14 14 14 14 14 14 14 14 14 14 14 14 14 14 13 13 13 13 13 13 13 12 12 12
16 16 16 16 16 16 16 16 15 15 15 15 15 14 14 14 14 14 13 13 13 13 13 13 13 13 13 13 13 13 13 13 13 12 12 12 12 12
17 16 16 16 16 16 16 16 15 15 15 15 14 14 14 14 13 13 13 13 13 13 13 13 13 13 13 13 13 12 12 12 12 12 12 12 11 11
16 16 16 16 16 16 15 15 15 15 15 15 14 14 14 13 13 13 13 13 12 12 12 12 12 12 12 12 12 12 12 12 12 11 11 11 11 11
16 16 16 16 16 16 16 16 15 15 14 14 14 14 14 13 13 13 13 12 12 12 12 12 12 11 11 11 12 11 11 11 11 11 11 11 10 10
16 16 15 15 15 15 15 15 15 15 15 14 14 13 13 13 13 13 12 12 12 12 12 12 11 11 11 11 11 11 11 11 11 10 10 10 10 10
15 15 15 15 15 15 14 14 14 14 14 14 13 13 13 13 13 12 12 12 12 12 11 11 11 11 11 11 11 11 11 10 10 10 10 10 9 9
15 15 15 15 15 15 14 14 14 14 14 13 13 13 13 13 13 12 12 12 12 11 11 11 11 11 10 10 10 10 10 10 10 10 10 9 9 9
15 15 15 15 15 15 14 13 13 13 13 13 13 13 13 12 12 12 11 11 12 11 11 11 11 10 10 10 10 10 10 10 9 9 9 9 8 8
15 14 14 14 14 14 14 13 13 13 12 12 12 12 12 12 12 11 11 11 11 11 11 10 10 10 10 10 10 9 9 9 9 9 8 8 8 8
14 14 14 14 14 14 13 13 13 13 12 12 12 12 11 11 11 11 11 11 11 10 10 10 10 10 10 10 10 9 9 9 8 8 8 8 8 7
14 14 13 13 13 13 13 13 12 12 12 11 11 11 11 11 11 10 10 10 10 10 10 10 9 9 9 10 10 9 9 9 8 8 8 7 7 7
13 13 13 13 13 13 12 12 12 12 11 11 11 11 11 10 10 10 10 10 10 10 9 9 9 9 9 9 9 9 9 8 8 8 8 7 7 7
13 13 12 12 12 12 12 11 11 11 11 10 10 10 10 10 10 9 9 9 9 9 9 9 9 9 9 8 9 9 9 8 8 8 7 7 7 7
12 12 12 11 11 11 11 11 11 10 10 10 10 10 10 10 9 9 9 9 9 9 9 9 9 8 8 8 8 8 8 8 8 8 7 7 7 7
12 11 11 11 11 11 11 10 10 10 10 9 9 9 9 9 9 9 9 9 9 9 9 8 8 8 8 8 8 8 8 8 8 8 7 7 7 7
11 11 11 10 10 10 10 10 10 9 9 9 9 9 8 8 8 8 8 8 8 8 8 8 8 8 8 8 8 8 8 7 7 7 7 7 7 7
10 10 10 10 10 9 9 9 9 9 8 8 8 8 8 8 8 8 8 7 7 8 8 8 7 7 7 7 7 8 7 7 7 7 7 7 7 7
10 9 9 9 9 9 8 8 8 8 8 7 7 7 7 7 7 7 7 7 7 7 7 7 7 7 7 7 7 7 7 7 7 7 6 6 6 6
9 9 8 8 8 8 7 7 7 7 7 7 7 7 7 6 6 6 6 6 6 7 6 6 7 6 7 7 7 7 7 7 6 6 6 6 6 6
Wind_Speed
6 6 6 5 5 5 5 5 5 5 4 3 2 1 1 1 2 1 2 6 5 4 3 2 2 2 3 3 3 3 3 2 3 3 3 4 4 4
4 5 5 5 4 4 5 5 5 5 4 2 1 1 1 1 3 2 3 7 6 4 3 3 3 3 3 3 3 3 3 3 3 4 4 4 4 4
5 4 4 4 4 4 4 4 4 4 4 2 0 1 1 1 2 2 2 2 4 5 4 4 4 4 4 4 4 4 4 4 4 4 3 4 4 4
5 4 4 3 3 3 3 3 3 3 3 2 1 1 1 1 2 1 1 1 3 7 6 5 5 4 5 5 5 5 4 4 4 4 4 4 4 4
4 4 4 4 3 3 3 3 3 3 2 3 2 1 1 2 2 1 1 1 2 5 6 6 5 5 5 5 5 5 5 5 5 5 5 4 4 4
3 4 4 4 4 4 4 4 3 3 3 3 2 2 2 2 2 2 2 2 1 2 3 3 5 6 5 5 5 5 5 5 5 5 5 5 5 5
4 4 4 2 2 3 3 3 3 3 3 3 3 3 3 3 3 3 3 3 2 2 2 3 4 3 5 6 6 5 6 6 6 6 5 5 5 5
5 4 4 4 4 3 2 2 2 4 4 3 3 3 4 3 3 3 3 3 2 3 2 2 2 2 2 2 6 7 6 6 6 6 6 5 5 6
5 5 4 3 4 4 4 5 3 1 1 3 3 3 3 3 3 4 3 3 2 1 2 2 2 2 2 4 9 8 7 7 6 6 6 5 6 6
6 5 5 3 3 3 4 4 3 3 2 3 2 2 1 2 3 4 3 3 2 2 2 3 3 3 3 4 10 9 9 8 8 7 7 6 6 7
6 6 6 5 4 3 4 3 3 3 3 3 4 3 4 3 2 3 3 4 3 3 4 3 3 3 4 4 8 12 11 10 9 8 8 7 6 7
5 5 5 4 5 5 5 4 3 3 3 4 4 4 4 5 5 4 3 4 3 3 4 3 3 3 3 4 4 7 9 11 12 11 10 9 8 7
4 4 4 8 7 6 4 3 2 2 3 4 3 3 3 3 4 4 3 4 3 3 3 4 3 4 4 3 4 5 6 6 8 10 11 12 11 9
4 3 4 9 8 6 4 3 3 3 3 3 3 3 3 3 3 3 4 4 4 3 2 4 4 4 5 5 4 4 5 6 6 6 7 11 13 14
2 3 6 8 7 6 5 5 5 4 3 3 3 3 2 2 2 3 4 4 5 5 5 6 6 5 6 6 5 4 5 5 6 6 6 7 7 8
3 5 8 7 5 3 5 5 4 3 3 3 3 2 2 2 3 3 3 4 4 4 5 7 7 7 7 6 5 5 5 4 5 6 6 6 7 9
4 4 4 4 4 4 3 3 3 3 3 3 3 3 3 3 3 3 3 4 4 4 4 4 6 7 7 7 6 6 5 6 5 5 6 7 7 8
5 4 4 4 4 4 4 3 3 2 2 3 3 3 3 3 3 3 4 4 4 4 3 3 3 4 5 6 7 7 6 6 5 6 7 8 8 8
4 3 3 3 3 3 3 3 2 2 2 2 2 2 2 2 2 3 3 4 4 4 3 3 3 4 6 6 6 9 7 6 6 6 7 8 8 7
2 2 2 2 2 2 2 2 2 2 2 2 2 2 2 2 3 3 3 3 4 4 4 4 4 4 6 7 6 6 11 8 7 7 7 7 7 5
1 1 1 1 1 1 1 1 1 1 1 2 2 2 2 3 3 3 3 3 5 5 5 5 4 5 7 7 7 7 6 10 9 7 7 7 7 6
1 1 1 1 0 1 1 1 1 1 1 2 2 2 2 3 3 4 4 4 5 5 6 5 4 5 6 7 8 8 6 5 8 12 11 9 7 7
2 2 1 1 1 1 1 0 1 1 2 2 2 2 2 3 3 3 4 5 5 5 6 6 5 5 6 7 8 7 8 7 6 7 8 12 15 14
Wind_Direction
254 246 251 257 258 259 252 248 260 265 256 227 224 202 212 147 116 156 127 121 129 127 123 130 153 162 168 174 170 162 157 158 172 178 185 195 199 205
262 267 265 264 262 259 258 249 249 262 266 262 228 199 181 191 138 157 133 132 124 130 127 120 117 124 132 137 137 135 136 138 144 152 154 163 170 182
261 257 257 265 266 261 257 253 248 247 251 265 280 130 178 208 139 147 159 165 131 129 128 124 121 121 126 125 127 130 133 135 139 143 147 154 159 163
256 258 259 249 244 258 260 255 254 249 246 245 258 187 206 174 148 170 159 130 104 110 119 121 119 115 112 119 129 134 136 139 136 130 129 136 147 151
248 250 257 256 250 250 251 251 248 239 226 224 224 184 207 170 166 181 164 147 136 125 132 132 127 121 117 124 133 139 139 139 138 136 133 134 143 148
236 243 249 248 253 257 248 244 245 239 221 221 209 200 187 170 189 200 195 187 189 159 134 137 146 150 143 138 138 139 140 142 141 138 137 138 141 143
221 227 230 229 294 278 277 256 236 236 228 223 212 208 201 188 203 201 211 195 194 208 188 175 167 169 163 160 151 146 146 143 140 139 138 137 138 140
224 226 215 201 205 214 262 303 287 245 244 236 228 221 215 211 206 210 205 207 212 188 218 203 191 192 178 167 144 150 153 152 151 148 146 145 147 146
223 221 225 201 197 212 186 191 194 173 270 260 253 244 218 206 207 209 203 219 240 174 210 228 205 213 195 131 144 157 166 169 168 167 166 165 166 162
222 219 219 205 206 213 206 195 194 181 193 223 241 237 227 185 204 216 195 194 204 187 202 239 217 219 201 165 157 168 176 179 179 179 178 179 179 178
217 214 213 205 158 191 217 204 192 173 126 97 64 73 81 116 181 192 187 208 221 200 198 233 233 230 218 202 175 178 185 188 189 188 186 185 191 199
209 205 202 207 156 183 210 210 210 197 166 150 149 157 161 162 184 216 216 229 236 218 183 220 226 224 233 208 198 191 197 196 198 197 194 195 200 210
214 209 183 158 163 181 217 222 194 198 189 183 176 175 172 170 186 204 229 245 250 248 181 206 235 231 240 232 215 207 207 204 203 205 205 202 206 216
223 213 157 147 161 174 195 158 155 209 209 201 197 192 190 187 187 199 210 236 256 254 212 214 237 243 247 245 232 210 214 213 210 211 210 201 207 215
214 109 124 149 161 174 180 177 194 213 217 215 217 209 200 189 191 197 205 219 231 230 217 218 234 240 246 251 245 224 220 221 219 217 214 210 210 214
192 142 149 162 177 158 163 181 209 219 224 223 223 215 184 186 207 218 222 219 230 223 212 218 231 243 246 250 252 243 229 228 225 226 227 225 221 220
173 171 174 173 178 179 183 192 203 205 217 226 222 216 214 212 211 219 234 233 236 240 227 215 223 235 246 254 251 247 239 236 232 222 229 237 231 227
179 187 191 197 197 192 188 190 196 205 218 227 229 228 228 231 232 230 237 245 249 251 247 236 229 231 236 237 235 249 248 244 239 227 235 242 242 233
189 193 194 196 198 200 202 205 206 204 219 230 236 241 244 245 249 247 250 253 255 258 258 250 248 255 264 264 232 220 250 257 249 238 236 244 252 248
189 183 193 197 196 199 201 205 213 204 209 240 254 260 263 258 255 255 256 267 268 265 263 260 257 260 267 274 274 252 223 244 254 253 251 251 257 256
129 125 138 172 185 194 199 212 219 210 228 250 249 251 251 254 258 262 263 255 265 265 266 264 264 257 266 268 267 264 248 225 243 260 263 261 260 255
118 121 105 91 124 179 192 195 199 214 239 248 254 257 259 258 257 259 262 260 262 267 273 276 266 257 260 265 271 275 275 260 236 238 247 252 263 266
106 98 90 80 66 51 27 319 236 243 254 264 263 266 272 268 266 263 263 264 267 272 275 273 271 266 265 268 275 279 279 272 264 250 246 233 238 249
Height
1540 1540 1540 1540 1539 1539 1539 1539 1539 1538 1538 1538 1537 1537 1537 1537 1536 1536 1536 1535 1536 1536 1535 1535 1535 1535 1535 1535 1535 1535 1535 1536 1536 1537 1537 1537 1538 1538
1536 1536 1536 1537 1536 1535 1535 1535 1535 1535 1535 1535 1534 1534 1534 1534 1534 1533 1533 1533 1533 1533 1533 1533 1532 1532 1532 1532 1532 1533 1533 1533 1533 1534 1534 1534 1534 1534
1534 1534 1533 1533 1533 1532 1532 1532 1532 1532 1532 1532 1532 1531 1531 1531 1531 1532 1532 1531 1531 1530 1530 1530 1530 1530 1530 1530 1530 1530 1530 1530 1531 1531 1531 1531 1531 1531
1531 1531 1531 1530 1530 1529 1529 1529 1529 1529 1529 1529 1529 1529 1529 1529 1529 1529 1529 1529 1529 1528 1528 1528 1528 1528 1528 1528 1528 1528 1528 1528 1528 1528 1528 1528 1528 1528
1528 1528 1528 1528 1527 1527 1526 1527 1526 1527 1526 1526 1526 1526 1526 1526 1526 1527 1527 1527 1527 1526 1526 1526 1526 1526 1526 1526 1526 1525 1525 1525 1525 1525 1525 1525 1525 1525
1525 1525 1525 1525 1524 1524 1524 1523 1524 1524 1524 1524 1524 1524 1524 1524 1524 1525 1525 1525 1525 1525 1524 1524 1524 1524 1524 1524 1523 1523 1523 1523 1523 1522 1522 1522 1522 1522
1522 1522 1522 1522 1521 1522 1522 1522 1521 1522 1522 1522 1522 1522 1522 1522 1522 1522 1523 1523 1523 1523 1523 1523 1523 1522 1522 1521 1521 1521 1521 1520 1520 1520 1520 1519 1519 1519
1519 1519 1519 1518 1518 1518 1518 1518 1518 1519 1519 1519 1519 1519 1519 1519 1520 1520 1520 1521 1521 1522 1521 1521 1521 1521 1520 1520 1518 1518 1518 1518 1518 1518 1517 1517 1517 1517
1516 1516 1516 1516 1515 1516 1515 1515 1515 1515 1515 1516 1516 1516 1516 1516 1516 1517 1518 1518 1519 1519 1519 1519 1519 1519 1518 1517 1517 1516 1516 1516 1515 1515 1515 1515 1515 1515
1513 1513 1513 1513 1513 1513 1513 1513 1513 1512 1512 1513 1513 1513 1513 1513 1514 1515 1515 1515 1516 1516 1516 1517 1517 1517 1516 1515 1514 1514 1513 1513 1513 1512 1512 1512 1512 1512
1509 1509 1509 1509 1510 1510 1510 1510 1510 1510 1510 1510 1510 1510 1510 1510 1511 1512 1512 1513 1514 1513 1513 1514 1514 1514 1514 1513 1512 1511 1511 1510 1510 1509 1509 1509 1509 1509
1505 1505 1505 1506 1506 1506 1507 1508 1508 1508 1508 1507 1507 1507 1507 1507 1508 1508 1509 1510 1511 1511 1510 1511 1511 1511 1511 1510 1509 1508 1508 1507 1506 1506 1506 1506 1506 1507
1502 1502 1502 1502 1503 1503 1504 1504 1505 1506 1506 1505 1505 1505 1505 1505 1505 1505 1506 1507 1508 1508 1507 1507 1508 1508 1508 1507 1506 1506 1505 1505 1504 1503 1503 1503 1504 1504
1498 1499 1499 1499 1499 1500 1500 1501 1501 1502 1503 1503 1503 1503 1503 1503 1503 1503 1503 1503 1503 1504 1503 1503 1504 1504 1504 1504 1503 1502 1502 1502 1501 1500 1500 1500 1500 1501
1495 1495 1495 1496 1496 1497 1497 1498 1498 1499 1500 1500 1500 1500 1500 1500 1500 1499 1499 1499 1499 1499 1499 1499 1499 1500 1500 1500 1500 1499 1499 1498 1498 1497 1497 1497 1497 1497
1491 1491 1492 1493 1493 1493 1494 1494 1495 1496 1497 1498 1498 1497 1497 1497 1497 1497 1497 1497 1497 1496 1495 1495 1495 1495 1496 1496 1496 1495 1495 1495 1494 1494 1494 1493 1493 1493
1487 1488 1488 1489 1490 1490 1490 1491 1492 1493 1493 1494 1494 1494 1493 1494 1494 1494 1494 1494 1494 1494 1493 1492 1492 1491 1491 1492 1492 1492 1491 1491 1491 1490 1489 1489 1489 1489
1483 1484 1484 1486 1486 1487 1487 1488 1489 1490 1490 1491 1490 1490 1490 1490 1491 1491 1491 1491 1491 1490 1490 1490 1489 1489 1488 1488 1488 1487 1487 1487 1486 1486 1485 1485 1485 1485
1479 1480 1481 1482 1483 1484 1484 1485 1486 1486 1487 1488 1487 1487 1487 1487 1487 1487 1487 1487 1487 1487 1487 1486 1486 1485 1485 1484 1483 1483 1483 1482 1482 1481 1480 1480 1480 1480
1476 1477 1479 1480 1480 1481 1481 1482 1483 1483 1483 1483 1484 1484 1484 1483 1484 1484 1484 1484 1484 1483 1483 1482 1482 1481 1481 1481 1479 1479 1478 1478 1477 1477 1476 1475 1475 1475
1474 1475 1477 1478 1478 1478 1478 1479 1479 1479 1479 1480 1480 1480 1480 1480 1480 1480 1480 1480 1480 1480 1479 1478 1478 1477 1477 1476 1476 1474 1474 1473 1472 1472 1471 1471 1470 1469
1473 1474 1475 1476 1476 1476 1476 1476 1476 1477 1477 1477 1477 1477 1477 1477 1476 1476 1477 1476 1476 1476 1475 1475 1474 1473 1473 1472 1471 1469 1469 1468 1467 1466 1466 1465 1464 1463
1471 1472 1472 1473 1473 1474 1474 1474 1474 1474 1474 1474 1474 1473 1473 1473 1473 1473 1472 1472 1472 1472 1471 1470 1470 1469 1468 1468 1466 1465 1464 1463 1462 1461 1460 1459 1459 1458